This is the latest recevied weather packets stored in our database for station/object KC9DRE. If no packets are shown the sender has not sent any weather packets the latest 1 day(s).
| Time | Temp. | Humidity | Pressure | Rain* | Wind** | Luminosity | Snow |
|---|---|---|---|---|---|---|---|
| 1778001292 | 17.22° C | 83% | 1010.1 hPa | 0 mm | 0.45 m/s, 285° | 81 W/m² | - |
| 1778000990 | 17.22° C | 80% | 1009.9 hPa | 0 mm | 0.89 m/s, 268° | 58 W/m² | - |
| 1778000686 | 17.22° C | 79% | 1009.9 hPa | 0 mm | 0.45 m/s, 242° | 48 W/m² | - |
| 1778000382 | 17.78° C | 79% | 1009.9 hPa | 0 mm | 0.45 m/s, 264° | 57 W/m² | - |
| 1778000078 | 17.78° C | 79% | 1010 hPa | 0 mm | 0.89 m/s, 256° | 124 W/m² | - |
| 1777999773 | 18.33° C | 77% | 1010 hPa | 0 mm | 0.45 m/s, 265° | 79 W/m² | - |
| 1777999470 | 18.89° C | 75% | 1009.8 hPa | 0 mm | 0.45 m/s, 297° | 230 W/m² | - |
| 1777999168 | 18.89° C | 70% | 1010 hPa | 0 mm | 0.45 m/s, 176° | 133 W/m² | - |
| 1777998867 | 18.89° C | 71% | 1009.8 hPa | 0 mm | 0.45 m/s, 260° | 156 W/m² | - |
| 1777998566 | 18.89° C | 69% | 1009.6 hPa | 0 mm | 0.45 m/s, 265° | 202 W/m² | - |
| 1777998261 | 18.33° C | 70% | 1009.9 hPa | 0 mm | 0.45 m/s, 262° | 220 W/m² | - |
| 1777997958 | 18.33° C | 71% | 1010.2 hPa | 0 mm | 0.45 m/s, 255° | 162 W/m² | - |
| 1777997655 | 18.33° C | 70% | 1010.1 hPa | 0 mm | 0.89 m/s, 261° | 94 W/m² | - |
| 1777997352 | 18.33° C | 71% | 1010.2 hPa | 0 mm | 0.45 m/s, 270° | 103 W/m² | - |
| 1777997050 | 18.33° C | 70% | 1009.9 hPa | 0 mm | 0 m/s | 111 W/m² | - |
| 1777996746 | 18.33° C | 70% | 1009.8 hPa | 0 mm | 0.45 m/s, 9° | 127 W/m² | - |
| 1777996442 | 18.33° C | 69% | 1009.8 hPa | 0 mm | 0.45 m/s, 251° | 149 W/m² | - |
| 1777996139 | 18.33° C | 69% | 1009.7 hPa | 0 mm | 1.34 m/s, 275° | 196 W/m² | - |
| 1777995836 | 18.33° C | 71% | 1009.7 hPa | 0 mm | 0.45 m/s, 199° | 171 W/m² | - |
| 1777995532 | 18.33° C | 70% | 1009.7 hPa | 0 mm | 0.45 m/s, 275° | 187 W/m² | - |
| 1777995229 | 18.33° C | 71% | 1010 hPa | 0 mm | 0.45 m/s, 256° | 160 W/m² | - |
| 1777994926 | 18.33° C | 71% | 1009.9 hPa | 0 mm | 0.89 m/s, 229° | 180 W/m² | - |
| 1777994624 | 18.33° C | 70% | 1009.8 hPa | 0 mm | 0.45 m/s, 274° | 209 W/m² | - |
| 1777994323 | 17.78° C | 70% | 1009.8 hPa | 0 mm | 0.45 m/s, 184° | 210 W/m² | - |
| 1777994020 | 17.78° C | 70% | 1009.7 hPa | 0 mm | 0.45 m/s, 290° | 180 W/m² | - |
* Rain latest hour (hover to see other rain measurements)
** Current wind speed in m/s (hover to see current wind gust speed)